Location: Unspecified
(0.0000°N, 0.0000°E)
Time: 13:42:28
(UTC+00:00)

LightSail 2 - Pass Details

Date: 23 November 2019
Orbit: 696 x 730 km, 24.0° (Epoch: 08 December)

Event Time Altitude Azimuth Distance (km) Brightness Sun altitude
Rises 20:04:44 0° 277° (W) 3,060 9.2 -32.1°
Reaches altitude 10° 20:07:55 10° 297° (WNW) 2,138 8.0 -32.9°
Enters shadow 20:09:07 14° 309° (NW) 1,885 7.6 -33.1°
